Location: Azat
(46.0765°N, 1.7600°E)
Time: 18:12:37
(UTC+00:00)

STARLINK-1222 - Pass Details

Date: 09 April 2020
Orbit: 376 x 383 km, 53.0° (Epoch: 01 June)

Event Time Altitude Azimuth Distance (km) Brightness Sun altitude
Rises 20:07:12 0° 300° (WNW) 2,198 8.6 -16.0°
Reaches altitude 10° 20:09:14 10° 298° (WNW) 1,348 7.0 -16.3°
Maximum altitude 20:12:13 71° 215° (SW) 386 2.8 -16.8°
Enters shadow 20:12:42 56° 154° (SSE) 437 2.8 -16.9°
